Time,TemperatureF,DewpointF,PressureIn,WindDirection,WindDirectionDegrees,WindSpeedMPH,WindSpeedGustMPH,Humidity,HourlyPrecipIn,Conditions,Clouds,dailyrainin,SoftwareType,DateUTC
2013-02-03 00:03:00,37.0,35.0,30.04,North,5,4.0,14.0,94,0.00,,,0.05,,2013-02-03 05:03:00,
2013-02-03 00:12:00,37.0,35.0,30.04,North,5,4.0,14.0,94,0.00,,,0.05,,2013-02-03 05:12:00,
2013-02-03 00:22:00,37.0,35.0,30.03,North,5,2.0,11.0,94,0.00,,,0.05,,2013-02-03 05:22:00,
2013-02-03 00:32:00,37.0,35.0,30.03,North,5,1.0,9.0,93,0.00,,,0.05,,2013-02-03 05:32:00,
2013-02-03 00:42:00,37.0,35.0,30.03,North,5,1.0,9.0,93,0.00,,,0.05,,2013-02-03 05:42:00,
2013-02-03 00:52:00,37.0,35.0,30.02,North,5,1.0,6.0,93,0.00,,,0.05,,2013-02-03 05:52:00,
2013-02-03 01:02:00,36.0,34.0,30.02,North,5,2.0,10.0,93,0.00,,,0.05,,2013-02-03 06:02:00,
2013-02-03 01:11:00,36.0,34.0,30.02,North,5,2.0,10.0,93,0.00,,,0.05,,2013-02-03 06:11:00,
2013-02-03 01:21:00,36.0,34.0,30.02,North,5,2.0,5.0,93,0.00,,,0.05,,2013-02-03 06:21:00,
2013-02-03 01:32:00,36.0,34.0,30.01,North,5,2.0,6.0,93,0.00,,,0.05,,2013-02-03 06:32:00,
2013-02-03 01:42:00,36.0,34.0,30.01,North,5,2.0,6.0,93,0.00,,,0.05,,2013-02-03 06:42:00,
2013-02-03 01:52:00,36.0,34.0,30.01,North,5,2.0,9.0,93,0.00,,,0.05,,2013-02-03 06:52:00,
2013-02-03 02:02:00,36.0,34.0,30.00,North,5,1.0,7.0,93,0.00,,,0.05,,2013-02-03 07:02:00,
2013-02-03 02:11:00,36.0,34.0,30.00,North,5,1.0,7.0,93,0.00,,,0.05,,2013-02-03 07:11:00,
2013-02-03 02:21:00,36.0,34.0,30.00,North,5,2.0,7.0,93,0.00,,,0.05,,2013-02-03 07:21:00,
2013-02-03 02:32:00,35.0,33.0,29.99,North,5,3.0,10.0,93,0.00,,,0.05,,2013-02-03 07:32:00,
2013-02-03 02:42:00,35.0,33.0,29.99,North,5,3.0,10.0,93,0.00,,,0.05,,2013-02-03 07:42:00,
2013-02-03 02:52:00,35.0,33.0,29.98,North,5,1.0,9.0,93,0.00,,,0.05,,2013-02-03 07:52:00,
2013-02-03 03:02:00,35.0,33.0,29.98,North,5,2.0,8.0,93,0.00,,,0.05,,2013-02-03 08:02:00,
2013-02-03 03:11:00,35.0,33.0,29.98,North,5,2.0,8.0,93,0.00,,,0.05,,2013-02-03 08:11:00,
2013-02-03 03:22:00,35.0,33.0,29.98,North,5,2.0,10.0,94,0.00,,,0.05,,2013-02-03 08:22:00,
2013-02-03 03:32:00,34.0,32.0,29.97,North,5,1.0,6.0,94,0.00,,,0.05,,2013-02-03 08:32:00,
2013-02-03 03:42:00,34.0,32.0,29.97,North,5,1.0,6.0,94,0.00,,,0.05,,2013-02-03 08:42:00,
2013-02-03 03:52:00,34.0,32.0,29.96,North,5,1.0,5.0,94,0.00,,,0.05,,2013-02-03 08:52:00,
2013-02-03 04:03:00,34.0,32.0,29.97,North,5,0.0,3.0,94,0.00,,,0.05,,2013-02-03 09:03:00,
2013-02-03 04:11:00,34.0,32.0,29.97,North,5,0.0,3.0,94,0.00,,,0.05,,2013-02-03 09:11:00,
2013-02-03 04:22:00,33.0,31.0,29.97,North,5,0.0,0.0,93,0.00,,,0.05,,2013-02-03 09:22:00,
2013-02-03 04:32:00,32.0,30.0,29.97,North,5,0.0,0.0,92,0.00,,,0.05,,2013-02-03 09:32:00,
2013-02-03 04:42:00,32.0,30.0,29.97,North,5,0.0,0.0,92,0.00,,,0.05,,2013-02-03 09:42:00,
2013-02-03 04:52:00,32.0,30.0,29.97,North,5,0.0,2.0,92,0.00,,,0.05,,2013-02-03 09:52:00,
2013-02-03 05:01:00,31.0,29.0,29.96,North,5,0.0,2.0,93,0.00,,,0.05,,2013-02-03 10:01:00,
2013-02-03 05:11:00,31.0,29.0,29.96,North,5,0.0,2.0,93,0.00,,,0.05,,2013-02-03 10:11:00,
2013-02-03 05:21:00,31.0,29.0,29.97,North,5,0.0,0.0,93,0.00,,,0.05,,2013-02-03 10:21:00,
2013-02-03 05:32:00,30.0,28.0,29.96,North,5,0.0,1.0,93,0.00,,,0.05,,2013-02-03 10:32:00,
2013-02-03 05:42:00,30.0,28.0,29.96,North,5,0.0,1.0,93,0.00,,,0.05,,2013-02-03 10:42:00,
2013-02-03 05:53:00,30.0,28.0,29.96,North,5,0.0,0.0,93,0.00,,,0.05,,2013-02-03 10:53:00,
2013-02-03 06:02:00,30.0,28.0,29.97,North,5,0.0,3.0,94,0.00,,,0.05,,2013-02-03 11:02:00,
2013-02-03 06:11:00,30.0,28.0,29.97,North,5,0.0,3.0,94,0.00,,,0.05,,2013-02-03 11:11:00,
2013-02-03 06:22:00,31.0,29.0,29.96,North,5,1.0,9.0,94,0.00,,,0.05,,2013-02-03 11:22:00,
2013-02-03 06:32:00,33.0,30.0,29.96,North,5,2.0,8.0,88,0.00,,,0.05,,2013-02-03 11:32:00,
2013-02-03 06:42:00,33.0,30.0,29.96,North,5,2.0,8.0,88,0.00,,,0.05,,2013-02-03 11:42:00,
2013-02-03 06:52:00,34.0,30.0,29.96,North,5,1.0,3.0,84,0.00,,,0.05,,2013-02-03 11:52:00,
2013-02-03 07:02:00,33.0,29.0,29.96,North,5,0.0,3.0,84,0.00,,,0.05,,2013-02-03 12:02:00,
2013-02-03 07:12:00,33.0,29.0,29.96,North,5,0.0,3.0,84,0.00,,,0.05,,2013-02-03 12:12:00,
2013-02-03 07:22:00,33.0,29.0,29.96,North,5,1.0,4.0,85,0.00,,,0.05,,2013-02-03 12:22:00,
2013-02-03 07:32:00,33.0,28.0,29.96,North,5,3.0,7.0,83,0.00,,,0.05,,2013-02-03 12:32:00,
2013-02-03 07:42:00,33.0,28.0,29.96,North,5,3.0,7.0,83,0.00,,,0.05,,2013-02-03 12:42:00,
2013-02-03 07:53:00,34.0,29.0,29.96,North,5,3.0,8.0,82,0.00,,,0.05,,2013-02-03 12:53:00,
2013-02-03 08:03:00,34.0,29.0,29.96,North,5,1.0,4.0,82,0.00,,,0.05,,2013-02-03 13:03:00,
2013-02-03 08:11:00,34.0,29.0,29.96,North,5,1.0,4.0,82,0.00,,,0.05,,2013-02-03 13:11:00,
2013-02-03 08:22:00,34.0,29.0,29.95,North,5,0.0,2.0,83,0.00,,,0.05,,2013-02-03 13:22:00,
2013-02-03 08:32:00,34.0,30.0,29.97,North,5,1.0,5.0,84,0.00,,,0.05,,2013-02-03 13:32:00,
2013-02-03 08:42:00,34.0,30.0,29.97,North,5,1.0,5.0,84,0.00,,,0.05,,2013-02-03 13:42:00,
2013-02-03 08:52:00,34.0,30.0,29.98,North,5,2.0,7.0,84,0.00,,,0.05,,2013-02-03 13:52:00,
2013-02-03 09:02:00,35.0,31.0,29.98,North,5,4.0,8.0,84,0.00,,,0.05,,2013-02-03 14:02:00,
2013-02-03 09:12:00,35.0,31.0,29.98,North,5,4.0,8.0,84,0.00,,,0.05,,2013-02-03 14:12:00,
2013-02-03 09:22:00,36.0,31.0,29.97,North,5,2.0,6.0,83,0.00,,,0.05,,2013-02-03 14:22:00,
2013-02-03 09:32:00,37.0,32.0,29.98,North,5,2.0,10.0,82,0.00,,,0.05,,2013-02-03 14:32:00,
2013-02-03 09:42:00,37.0,32.0,29.98,North,5,2.0,10.0,82,0.00,,,0.05,,2013-02-03 14:42:00,
2013-02-03 09:52:00,37.0,32.0,29.98,North,5,2.0,10.0,82,0.00,,,0.05,,2013-02-03 14:52:00,
2013-02-03 10:03:00,40.0,33.0,29.96,North,5,3.0,11.0,77,0.00,,,0.05,,2013-02-03 15:03:00,
2013-02-03 10:11:00,40.0,33.0,29.96,North,5,3.0,11.0,77,0.00,,,0.05,,2013-02-03 15:11:00,
2013-02-03 10:23:00,41.0,34.0,29.97,North,5,4.0,11.0,76,0.00,,,0.05,,2013-02-03 15:23:00,
2013-02-03 10:33:00,42.0,35.0,29.97,North,5,5.0,14.0,75,0.00,,,0.05,,2013-02-03 15:33:00,
2013-02-03 10:42:00,42.0,35.0,29.97,North,5,5.0,14.0,75,0.00,,,0.05,,2013-02-03 15:42:00,
2013-02-03 10:52:00,42.0,35.0,29.97,North,5,5.0,14.0,75,0.00,,,0.05,,2013-02-03 15:52:00,
2013-02-03 11:03:00,43.0,35.0,29.95,North,5,4.0,14.0,73,0.00,,,0.05,,2013-02-03 16:03:00,
2013-02-03 11:11:00,43.0,35.0,29.95,North,5,4.0,14.0,73,0.00,,,0.05,,2013-02-03 16:11:00,
2013-02-03 11:22:00,43.0,34.0,29.95,North,5,4.0,15.0,71,0.00,,,0.05,,2013-02-03 16:22:00,
2013-02-03 11:33:00,45.0,36.0,29.94,North,5,8.0,13.0,71,0.00,,,0.05,,2013-02-03 16:33:00,
2013-02-03 11:42:00,45.0,36.0,29.94,North,5,8.0,13.0,71,0.00,,,0.05,,2013-02-03 16:42:00,
2013-02-03 11:52:00,45.0,36.0,29.94,North,5,6.0,15.0,70,0.00,,,0.05,,2013-02-03 16:52:00,
2013-02-03 12:02:00,46.0,36.0,29.93,North,5,1.0,15.0,69,0.00,,,0.05,,2013-02-03 17:02:00,
2013-02-03 12:11:00,46.0,36.0,29.93,North,5,1.0,15.0,69,0.00,,,0.05,,2013-02-03 17:11:00,
2013-02-03 12:22:00,46.0,37.0,29.92,North,5,6.0,11.0,70,0.00,,,0.05,,2013-02-03 17:22:00,
2013-02-03 12:32:00,46.0,36.0,29.91,North,5,5.0,12.0,68,0.00,,,0.05,,2013-02-03 17:32:00,
2013-02-03 12:42:00,46.0,36.0,29.91,North,5,5.0,12.0,68,0.00,,,0.05,,2013-02-03 17:42:00,
2013-02-03 12:52:00,48.0,38.0,29.91,North,5,3.0,9.0,67,0.00,,,0.05,,2013-02-03 17:52:00,
2013-02-03 13:03:00,48.0,36.0,29.90,North,5,3.0,10.0,64,0.00,,,0.05,,2013-02-03 18:03:00,
2013-02-03 13:12:00,48.0,36.0,29.90,North,5,3.0,10.0,64,0.00,,,0.05,,2013-02-03 18:12:00,
2013-02-03 13:23:00,49.0,34.0,29.89,North,5,4.0,13.0,57,0.00,,,0.05,,2013-02-03 18:23:00,
2013-02-03 13:33:00,51.0,31.0,29.87,North,5,7.0,18.0,46,0.00,,,0.05,,2013-02-03 18:33:00,
2013-02-03 13:42:00,51.0,31.0,29.87,North,5,7.0,18.0,46,0.00,,,0.05,,2013-02-03 18:42:00,
2013-02-03 13:52:00,51.0,28.0,29.87,North,5,4.0,15.0,40,0.00,,,0.05,,2013-02-03 18:52:00,
2013-02-03 14:02:00,52.0,27.0,29.87,North,5,9.0,16.0,38,0.00,,,0.05,,2013-02-03 19:02:00,
2013-02-03 14:11:00,52.0,27.0,29.87,North,5,9.0,16.0,38,0.00,,,0.05,,2013-02-03 19:11:00,
2013-02-03 14:22:00,51.0,26.0,29.86,North,5,4.0,22.0,37,0.00,,,0.05,,2013-02-03 19:22:00,
2013-02-03 14:32:00,52.0,23.0,29.86,North,5,6.0,15.0,32,0.00,,,0.05,,2013-02-03 19:32:00,
2013-02-03 14:42:00,52.0,23.0,29.86,North,5,6.0,15.0,32,0.00,,,0.05,,2013-02-03 19:42:00,
2013-02-03 14:52:00,51.0,21.0,29.86,North,5,6.0,23.0,31,0.00,,,0.05,,2013-02-03 19:52:00,
2013-02-03 15:02:00,52.0,22.0,29.87,North,5,4.0,20.0,31,0.00,,,0.05,,2013-02-03 20:02:00,
2013-02-03 15:12:00,52.0,22.0,29.87,North,5,4.0,20.0,31,0.00,,,0.05,,2013-02-03 20:12:00,
2013-02-03 15:22:00,52.0,22.0,29.87,North,5,7.0,16.0,31,0.00,,,0.05,,2013-02-03 20:22:00,
2013-02-03 15:33:00,52.0,22.0,29.88,North,5,8.0,17.0,31,0.00,,,0.05,,2013-02-03 20:33:00,
2013-02-03 15:42:00,52.0,22.0,29.88,North,5,8.0,17.0,31,0.00,,,0.05,,2013-02-03 20:42:00,
2013-02-03 15:52:00,52.0,22.0,29.88,North,5,8.0,17.0,31,0.00,,,0.05,,2013-02-03 20:52:00,
2013-02-03 16:03:00,51.0,26.0,29.89,North,5,5.0,19.0,37,0.00,,,0.05,,2013-02-03 21:03:00,
2013-02-03 16:11:00,51.0,26.0,29.89,North,5,5.0,19.0,37,0.00,,,0.05,,2013-02-03 21:11:00,
2013-02-03 16:22:00,50.0,24.0,29.89,North,5,7.0,16.0,36,0.00,,,0.05,,2013-02-03 21:22:00,
2013-02-03 16:33:00,50.0,24.0,29.89,North,5,4.0,16.0,36,0.00,,,0.05,,2013-02-03 21:33:00,
2013-02-03 16:42:00,50.0,24.0,29.89,North,5,4.0,16.0,36,0.00,,,0.05,,2013-02-03 21:42:00,
2013-02-03 16:52:00,50.0,25.0,29.91,North,5,6.0,16.0,37,0.00,,,0.05,,2013-02-03 21:52:00,
2013-02-03 17:02:00,50.0,25.0,29.91,North,5,6.0,16.0,37,0.00,,,0.05,,2013-02-03 22:02:00,
2013-02-03 17:11:00,50.0,25.0,29.91,North,5,6.0,16.0,37,0.00,,,0.05,,2013-02-03 22:11:00,
2013-02-03 17:21:00,49.0,25.0,29.92,North,5,6.0,17.0,38,0.00,,,0.05,,2013-02-03 22:21:00,
2013-02-03 17:32:00,48.0,24.0,29.93,North,5,4.0,12.0,39,0.00,,,0.05,,2013-02-03 22:32:00,
2013-02-03 17:42:00,48.0,24.0,29.93,North,5,4.0,12.0,39,0.00,,,0.05,,2013-02-03 22:42:00,
2013-02-03 17:52:00,48.0,24.0,29.93,North,5,4.0,12.0,39,0.00,,,0.05,,2013-02-03 22:52:00,
2013-02-03 18:01:00,46.0,25.0,29.94,North,5,4.0,10.0,43,0.00,,,0.05,,2013-02-03 23:01:00,
2013-02-03 18:12:00,46.0,25.0,29.94,North,5,4.0,10.0,43,0.00,,,0.05,,2013-02-03 23:12:00,
2013-02-03 18:22:00,46.0,25.0,29.94,North,5,4.0,16.0,44,0.00,,,0.04,,2013-02-03 23:22:00,
2013-02-03 18:32:00,45.0,25.0,29.94,North,5,2.0,12.0,45,0.00,,,0.04,,2013-02-03 23:32:00,
2013-02-03 18:42:00,45.0,25.0,29.94,North,5,2.0,12.0,45,0.00,,,0.04,,2013-02-03 23:42:00,
2013-02-03 18:52:00,44.0,25.0,29.95,North,5,3.0,11.0,46,0.00,,,0.04,,2013-02-03 23:52:00,
2013-02-03 19:02:00,44.0,25.0,29.95,North,5,1.0,12.0,47,0.00,,,0.04,,2013-02-04 00:02:00,
2013-02-03 19:11:00,44.0,25.0,29.95,North,5,1.0,12.0,47,0.00,,,0.04,,2013-02-04 00:11:00,
2013-02-03 19:22:00,44.0,25.0,29.96,North,5,3.0,7.0,47,0.00,,,0.03,,2013-02-04 00:22:00,
2013-02-03 19:32:00,44.0,25.0,29.96,North,5,3.0,9.0,47,0.00,,,0.03,,2013-02-04 00:32:00,
2013-02-03 19:42:00,44.0,25.0,29.96,North,5,3.0,9.0,47,0.00,,,0.03,,2013-02-04 00:42:00,
2013-02-03 19:52:00,43.0,24.0,29.96,North,5,3.0,11.0,47,0.00,,,0.03,,2013-02-04 00:52:00,
2013-02-03 20:01:00,43.0,25.0,29.96,North,5,2.0,9.0,48,0.00,,,0.03,,2013-02-04 01:01:00,
2013-02-03 20:11:00,43.0,25.0,29.96,North,5,2.0,9.0,48,0.00,,,0.03,,2013-02-04 01:11:00,
2013-02-03 20:21:00,43.0,26.0,29.97,North,5,0.0,7.0,50,0.00,,,0.01,,2013-02-04 01:21:00,
2013-02-03 20:32:00,42.0,25.0,29.98,North,5,1.0,4.0,51,0.00,,,0.01,,2013-02-04 01:32:00,
2013-02-03 20:42:00,42.0,25.0,29.98,North,5,1.0,4.0,51,0.00,,,0.01,,2013-02-04 01:42:00,
2013-02-03 20:52:00,41.0,26.0,29.98,North,5,0.0,3.0,55,0.00,,,0.01,,2013-02-04 01:52:00,
2013-02-03 21:02:00,40.0,24.0,29.98,North,5,0.0,6.0,53,0.00,,,0.01,,2013-02-04 02:02:00,
2013-02-03 21:11:00,40.0,24.0,29.98,North,5,0.0,6.0,53,0.00,,,0.01,,2013-02-04 02:11:00,
2013-02-03 21:21:00,40.0,26.0,29.98,North,5,0.0,5.0,58,0.00,,,0.00,,2013-02-04 02:21:00,
2013-02-03 21:32:00,38.0,27.0,29.98,North,5,0.0,2.0,63,0.00,,,0.00,,2013-02-04 02:32:00,
2013-02-03 21:42:00,38.0,27.0,29.98,North,5,0.0,2.0,63,0.00,,,0.00,,2013-02-04 02:42:00,
2013-02-03 21:52:00,37.0,27.0,29.98,North,5,0.0,0.0,66,0.00,,,0.00,,2013-02-04 02:52:00,
2013-02-03 22:02:00,36.0,26.0,29.98,North,5,0.0,0.0,68,0.00,,,0.00,,2013-02-04 03:02:00,
2013-02-03 22:11:00,36.0,26.0,29.98,North,5,0.0,0.0,68,0.00,,,0.00,,2013-02-04 03:11:00,
2013-02-03 22:21:00,36.0,26.0,29.98,North,5,0.0,0.0,68,0.00,,,0.00,,2013-02-04 03:21:00,
2013-02-03 22:32:00,34.0,26.0,29.98,North,5,0.0,1.0,73,0.00,,,0.00,,2013-02-04 03:32:00,
2013-02-03 22:42:00,34.0,26.0,29.98,North,5,0.0,1.0,73,0.00,,,0.00,,2013-02-04 03:42:00,
2013-02-03 22:52:00,33.0,25.0,29.98,North,5,0.0,0.0,73,0.00,,,0.00,,2013-02-04 03:52:00,
2013-02-03 23:02:00,33.0,26.0,29.99,North,5,0.0,0.0,76,0.00,,,0.00,,2013-02-04 04:02:00,
2013-02-03 23:11:00,33.0,26.0,29.99,North,5,0.0,0.0,76,0.00,,,0.00,,2013-02-04 04:11:00,
2013-02-03 23:21:00,32.0,26.0,30.00,North,5,0.0,0.0,77,0.00,,,0.00,,2013-02-04 04:21:00,
2013-02-03 23:32:00,32.0,26.0,30.00,North,5,0.0,2.0,78,0.00,,,0.00,,2013-02-04 04:32:00,
2013-02-03 23:42:00,32.0,26.0,30.00,North,5,0.0,2.0,78,0.00,,,0.00,,2013-02-04 04:42:00,
2013-02-03 23:52:00,31.0,25.0,30.00,North,5,0.0,0.0,79,0.00,,,0.00,,2013-02-04 04:52:00,